Location: Diebersbach
(48.5163°N, 8.0558°E)
Time: 19:37:58
(UTC+00:00)

Cosmos 1825 - Pass Details

Date: 02 November 2021
Orbit: 501 x 504 km, 82.5° (Epoch: 01 December)

Event Time Altitude Azimuth Distance (km) Brightness Sun altitude
Rises 18:14:36 0° 339° (NNW) 2,611 6.1 -21.6°
Reaches altitude 10° 18:16:58 10° 326° (NW) 1,722 5.3 -22.0°
Maximum altitude 18:20:05 25° 270° (W) 1,054 4.5 -22.5°
Drops below altitude 10° 18:23:11 10° 215° (SW) 1,711 5.2 -23.0°
Sets 18:25:32 0° 201° (SSW) 2,590 6.0 -23.4°
